CZ-3C DEB

基本信息
目录编号:
48547
目录名称:
CZ-3C DEB
国际标识:
2012-008AS
轨道中心:
EARTH
物体状态:
在轨
发射日期:
2012-02-24 UTC
轨道信息
数据来源: 国际轨道数据
星历时间: 2024-09-14T10:55:53+0800
半长轴: 18871.719km
偏心率: 0.6418196
轨道倾角: 20.232°
近地点辐角: 258.636°
升交点赤经: 7.362°
平近点角: 27.879°
近地点: 381.344km
远地点: 24605.824km
周期: 430.008分钟
每日圈数: 3.348772
详细信息
发射场:
XSC
轨道高度:
LEO
数据来源:
AOE Integration Group
参考系:
TEME
时间系统:
UTC
历元类型:
SGP4
2D轨道图
3D轨道图
轨道高度分析图
轨道倾角分析图
轨道综合分析图
查看轨道综合分析图